Regional Weather Roundup
Issued by NWS

Home | Current Version | Previous Version | Text Only | Print | Product List | Glossary Off
Versions: 1 2 3 4 5 6 7 8 9 10 11 12 13 14 15 16 17 18 19 20 21 22 23 24 25 26 27 28 29 30 31 32 33 34 35 36 37 38 39 40 41 42 43 44 45 46 47 48 49 50

387
ASUS43 KIND 281359
RWRIN

WEATHER ROUNDUP FOR INDIANA
NATIONAL WEATHER SERVICE INDIANAPOLIS IN
900 AM EST TUE FEB 28 2017

NOTE: "FAIR" INDICATES FEW OR NO CLOUDS BELOW 12,000 FEET WITH NO
SIGNIFICANT WEATHER AND/OR OBSTRUCTIONS TO VISIBILITY.

* - STATION DOES NOT REPORT WEATHER SUCH AS PRECIPITATION OR FOG.

+ - STATION NOT QUALITY CONTROLLED BY THE NATIONAL WEATHER SERVICE.
    USE DATA WITH CAUTION...ESPECIALLY DEWPOINT AND RELATIVE
    HUMIDITY OBSERVATIONS.

INZ001>003-010>013-019-020-281500-
NORTHWEST INDIANA

CITY           SKY/WX    TMP DP  RH WIND       PRES   REMARKS
GARY /AIRPORT/ CLOUDY    50  46  87 S12G23    29.86F
KNOX *+        CLOUDY    46  34  61 S17       29.90F
MICHIGAN CITY+ CLOUDY    46  46 100 S10       29.88F

$$

LMZ046-743>745-281500-
SOUTHERN LAKE MICHIGAN

STATION/POSITION TIME  TEMP    WIND        PRES    WAVE
                       AIR SEA DIR/SP/G            HT
                 (UTC) (F)     (DEG/KT/KT) (MB)    (FT)
BURNS HARBOR     1340   49     170/ 14/ 22 1011.9F
MICHIGAN CITY    1330   48     140/ 18/ 23   N/A

$$

INZ004-005-014>016-021>024-281500-
NORTH CENTRAL INDIANA

CITY           SKY/WX    TMP DP  RH WIND       PRES   REMARKS
ELKHART        CLOUDY    46  45  93 S12       29.92F
GOSHEN         CLOUDY    47  42  83 S14       29.93F
SOUTH BEND     CLOUDY    47  45  93 S15       29.91F

$$

INZ006>009-017-018-025>027-281500-
NORTHEAST INDIANA

CITY           SKY/WX    TMP DP  RH WIND       PRES   REMARKS
ANGOLA *+      CLOUDY    43  36  75 SE9       29.95F
FORT WAYNE     CLOUDY    46  43  89 SE9       29.98F
KENDALLVILLE + CLOUDY    44  44  99 S14       29.96F FOG

$$

INZ028-029-035-036-043>045-051>053-281500-
WEST CENTRAL INDIANA

CITY           SKY/WX    TMP DP  RH WIND       PRES   REMARKS
GREENCASTLE +  CLOUDY    50  50 100 S7        29.96R FOG
LAFAYETTE      CLOUDY    49  48  97 S5        29.92F
TERRE HAUTE    CLOUDY    51  49  92 S13       29.95R FOG

$$

INZ030>032-037>040-046>048-054>057-064-065-281500-
CENTRAL INDIANA

CITY           SKY/WX    TMP DP  RH WIND       PRES   REMARKS
ANDERSON       CLOUDY    48  48 100 S12G23    29.99
COLUMBUS       CLOUDY    48  48 100 S10       30.01F
GREENWOOD *+   CLOUDY    49  49 100 S12       29.99S
INDIANAPOLIS   CLOUDY    49  47  93 SE7       29.97R
-EAGLE CREEK   CLOUDY    49  47  93 SE7       29.96F
KOKOMO +       CLOUDY    48  47  96 S12       29.96F
SHELBYVILLE    CLOUDY    51  47  86 S15       29.98F

$$

INZ033-034-041-042-049-050-058-059-281500-
EAST CENTRAL INDIANA

CITY           SKY/WX    TMP DP  RH WIND       PRES   REMARKS
MUNCIE         LGT RAIN  49  46  90 S12       29.98F FOG

$$

INZ060-061-067>069-081>083-085>088-281500-
SOUTHWEST INDIANA

CITY           SKY/WX    TMP DP  RH WIND       PRES   REMARKS
EVANSVILLE     TSTM      55  52  89 S7        29.99R
HUNTINGBURG *+ LGT RAIN  53  51  93 S8        29.99F

$$

INZ062-063-066-070>080-084-089>092-281500-
SOUTH CENTRAL AND SOUTHEAST INDIANA

CITY           SKY/WX    TMP DP  RH WIND       PRES   REMARKS
BLOOMINGTON    LGT RAIN  50  47  89 SE13      29.97F FOG
MADISON *+     CLOUDY    48  46  93 NE8G18    30.07R
SEYMOUR +      CLOUDY    50  50 100 SE9       30.02

$$





USA.gov is the U.S. government's official web portal to all federal, state and local government web resources and services.